Flag for U.S.A. Weather past 2 weeks in Sierra Vista, Arizona, U.S.A.

Now
55 °F

Sunny.


Feels Like: 53 °F
Forecast: 46 / 72 °F
Wind: 9 mph from West

Location: Fort Huachuca

Current Time: Apr 18, 2015 at 7:30:27 AM

Latest Report: Apr 18, 2015 at 6:47 AM


Visibility: 6 mi

Pressure: 30.10 "Hg

Humidity: 19%

Dew point: 14 °F

Location of Sierra VistaLocation

Historic Weather in Sierra Vista — Graph

°F

Sierra Vista temperature yesterday

Maximum temperature yesterday: 66 °F (at 3:58 PM)
Minimum temperature yesterday: 43 °F (at 5:58 AM)
Average temperature yesterday: 55 °F

Past Weeks' High & Low Weather Summary

 TemperatureHumidityPressure
High80 °F (Apr 4, 1:58 PM)96% (Apr 12, 9:58 AM)30.22 "Hg (Apr 12, 9:58 AM)
Low42 °F (Apr 16, 5:58 AM)4% (Apr 3, 2:58 PM)29.83 "Hg (Apr 5, 3:58 PM)
Average62 °F26%30.00 "Hg
* Reported Apr 3 5:58 AM — Apr 18 5:58 AM, Sierra Vista, Weather by CustomWeather, © 2015

Note: Actual official high and low records may vary slightly from our data, if they occured in-between our weather recording intervals... More about our weather records

Advertising

Sierra Vista weather history for previous 24 hours

 ConditionsComfort  
Time TempWeatherWind HumidityBarometerVisibility
5:58 AM
Sat, Apr 18
51 °FSunny.12 mph22%30.07 "Hg9 mi
4:58 AM51 °FClear.10 mph22%30.05 "Hg10 mi
3:58 AM49 °FClear.9 mph25%30.05 "Hg10 mi
2:58 AM50 °FClear.10 mph25%30.05 "Hg10 mi
1:58 AM49 °FClear.9 mph27%30.08 "Hg10 mi
12:58 AM50 °FClear.12 mph25%30.08 "Hg10 mi
11:58 PM
Fri, Apr 17
50 °FClear.9 mph26%30.09 "Hg10 mi
10:58 PM53 °FClear.8 mph21%30.09 "Hg10 mi
9:58 PM53 °FClear.10 mph21%30.09 "Hg10 mi
8:58 PM53 °FClear.10 mph21%30.09 "Hg10 mi
7:58 PM55 °FClear.10 mph18%30.07 "Hg10 mi
6:58 PM59 °FClear.9 mph14%30.05 "Hg7 mi
5:58 PM64 °FSunny.13 mph10%30.05 "Hg6 mi
4:58 PM65 °FSunny.9 mph10%30.03 "Hg6 mi
3:58 PM66 °FSunny.10 mph11%30.03 "Hg8 mi
2:58 PM66 °FSunny.16 mph11%30.04 "Hg8 mi
1:58 PM65 °FSunny.7 mph11%30.06 "Hg8 mi
12:58 PM64 °FSunny.8 mph11%30.08 "Hg8 mi
11:58 AM62 °FSunny.15 mph12%30.09 "Hg8 mi
10:58 AM62 °FSunny.13 mph13%30.11 "Hg8 mi
9:58 AM59 °FSunny.8 mph15%30.12 "Hg8 mi
8:58 AM56 °FSunny.5 mph16%30.13 "Hg8 mi
7:58 AM53 °FSunny.3 mph16%30.12 "Hg8 mi
Weather by CustomWeather, © 2015

See weather overviewHow to use our weather pages